Wind_Speed
2 4 5 5 4 3 4 8 12 12 9 6 4 3 4 5 5 5 6 6 7 7 6 6 5 4 4 4 5 6 6 7 7 7 7 7 6 6 7 7 9 10 12 14 15 15 15 15 15
0 2 2 3 2 3 5 10 14 15 12 8 5 4 4 5 4 4 5 7 7 7 6 6 6 5 6 6 7 7 8 8 8 9 9 9 9 8 9 9 10 11 13 14 15 16 16 15 15
3 1 2 1 2 3 5 8 14 18 16 13 9 7 6 5 6 6 6 6 6 6 6 7 7 7 8 8 9 10 10 10 10 11 11 11 12 12 13 13 13 14 14 15 16 17 17 17 16
6 3 1 3 3 2 4 7 13 19 20 16 14 11 8 5 5 7 7 6 6 6 7 8 9 9 10 11 12 12 13 13 13 14 14 14 14 15 15 16 16 17 17 17 18 18 18 18 18
6 4 4 4 3 3 4 8 16 21 23 21 18 14 11 7 5 7 9 8 8 8 9 10 11 12 13 13 14 15 15 15 15 16 16 16 16 16 17 18 19 20 20 20 20 21 21 20 20
7 5 6 5 5 4 3 10 19 25 27 25 21 18 16 12 7 8 10 11 9 10 11 12 13 14 15 16 17 17 17 17 17 17 17 17 18 18 18 18 19 20 21 22 23 23 23 23 22
8 6 8 9 8 5 6 14 22 26 29 28 25 22 20 16 11 9 11 12 11 11 13 14 15 16 17 18 19 19 19 19 19 19 18 19 19 20 21 22 22 22 23 24 24 26 25 25 25
11 9 13 15 14 11 11 16 23 27 30 29 28 27 23 19 14 11 12 13 13 13 14 15 17 18 19 20 21 21 21 22 21 21 21 21 22 23 23 24 24 24 24 25 25 26 27 27 28
14 12 17 20 20 19 17 18 24 28 30 31 30 29 26 20 18 16 14 15 15 16 17 17 18 20 21 21 22 23 23 24 24 23 23 24 24 25 25 25 25 25 25 24 25 26 28 29 29
16 14 21 24 24 23 21 21 25 29 31 31 31 30 25 23 23 21 18 17 17 18 19 20 20 22 23 24 24 24 25 25 26 26 27 27 27 27 27 27 25 25 25 25 24 24 26 28 30
18 17 24 27 26 25 24 24 27 30 32 33 33 29 25 26 25 23 21 19 20 21 21 23 24 25 25 25 25 26 26 27 28 28 29 29 29 28 27 27 26 25 25 26 25 24 25 26 27
21 21 26 28 27 25 25 27 28 31 32 32 31 28 26 26 26 25 23 23 23 24 25 25 26 26 26 26 26 26 27 28 29 30 30 30 30 29 28 27 27 27 26 26 26 25 26 26 27
23 22 26 30 30 27 26 27 29 30 29 29 29 28 27 27 27 25 25 25 26 27 27 27 26 27 27 27 27 27 28 29 30 31 31 31 31 30 28 28 28 28 27 26 26 26 26 25 25
19 21 22 24 24 23 23 25 26 26 24 24 25 26 26 26 25 24 25 26 27 27 28 27 27 27 28 28 29 30 31 32 32 32 32 31 30 29 29 29 29 29 28 27 27 26 25 25 25
17 17 18 18 18 19 20 20 21 21 20 21 22 23 23 23 23 23 24 25 26 25 25 25 26 27 28 30 31 32 34 34 34 34 33 32 31 30 30 30 30 30 30 29 27 27 25 25 24
15 15 15 15 15 16 18 17 18 18 18 18 19 20 21 21 21 21 22 23 23 23 24 25 26 28 30 32 33 35 36 36 36 35 35 34 33 33 32 31 31 31 31 30 29 27 26 25 24
9 8 9 10 12 15 17 18 19 19 18 17 18 18 19 18 18 19 20 22 23 24 25 27 29 31 32 34 35 36 37 37 37 36 36 36 35 34 33 32 32 32 32 31 30 28 26 25 25
4 5 6 9 10 13 17 19 19 17 16 15 15 16 15 15 16 18 20 21 23 25 28 30 31 33 34 36 37 37 38 38 38 37 36 35 35 34 34 34 34 33 33 33 31 29 27 26 25
5 8 9 10 11 12 13 14 16 16 13 10 10 11 11 13 15 17 19 21 23 26 28 31 33 34 36 37 37 38 37 37 37 37 36 35 35 35 35 35 35 35 34 34 33 32 29 28 26
6 10 11 13 13 14 14 14 12 8 7 5 6 6 8 10 13 15 18 21 23 25 28 30 31 33 34 35 35 36 35 35 35 36 35 35 34 35 35 35 36 36 35 35 35 34 32 31 29
6 10 12 14 15 17 19 20 17 8 4 2 3 3 6 9 12 14 17 19 21 23 25 26 28 30 31 32 33 34 34 35 34 35 35 34 33 33 33 33 34 35 35 35 35 35 34 33 32
8 10 12 14 16 20 20 19 12 6 6 5 5 4 6 9 12 14 17 19 21 23 24 26 27 29 30 31 32 33 33 34 34 34 34 35 35 34 34 33 32 32 33 33 34 34 34 34 34
10 11 12 13 14 17 16 13 7 6 5 6 6 7 9 11 14 17 19 21 23 24 25 26 27 28 30 31 32 33 34 34 35 35 35 36 36 36 35 34 32 31 31 31 31 32 33 34 35
8 9 10 10 11 14 13 12 9 6 7 7 8 10 13 16 19 21 23 24 26 27 27 28 29 29 31 32 33 35 35 36 37 37 37 37 37 37 37 35 33 32 31 30 30 30 30 31 33
6 8 8 8 9 10 12 13 11 7 7 9 11 14 17 21 24 26 28 29 30 31 31 31 31 32 33 34 35 36 37 37 38 38 38 38 38 38 38 38 36 34 32 30 30 31 31 31 31
6 9 9 8 9 8 9 9 9 7 8 12 15 18 21 24 27 29 31 33 34 35 35 35 35 35 35 36 36 37 38 38 39 39 39 39 39 39 40 40 39 37 35 33 32 32 33 34 33
9 9 8 8 8 7 8 9 10 9 11 15 19 22 24 26 29 32 34 35 37 37 37 37 37 37 37 37 37 38 38 38 38 39 39 40 40 41 40 41 41 41 39 37 36 34 35 36 36
12 10 7 5 7 8 9 10 13 13 16 19 22 23 25 27 30 33 35 37 38 38 38 38 38 38 38 38 38 38 38 38 39 40 40 41 42 42 42 42 42 42 41 41 40 39 38 38 39
9 8 7 6 7 9 12 15 16 17 18 20 22 24 26 28 30 33 36 37 38 39 39 39 39 38 38 38 38 39 39 40 41 42 42 43 43 42 42 42 41 41 42 42 42 42 42 41 41
8 9 8 9 10 12 16 19 18 19 20 22 24 25 27 29 31 33 36 37 38 39 39 38 38 38 39 39 39 40 41 42 43 44 44 43 43 42 41 41 41 41 41 42 43 44 44 44 44
Wind_Direction
113 116 105 83 62 36 21 19 11 355 349 357 355 334 348 360 358 354 353 352 3 11 10 7 5 2 352 345 345 346 344 340 338 337 337 335 333 330 326 320 316 314 314 316 318 321 325 328 333
92 149 126 83 38 325 340 0 347 337 336 336 328 327 348 358 352 355 341 345 8 10 3 1 356 346 337 333 332 334 332 329 325 323 322 318 311 306 303 301 299 298 299 301 304 307 310 314 318
321 266 144 122 232 299 335 352 329 324 324 322 318 327 329 343 339 329 325 342 355 350 342 338 333 322 320 320 322 322 322 319 317 315 314 311 304 297 291 289 287 287 287 289 290 293 296 299 303
312 285 193 192 229 290 325 327 311 312 315 315 312 320 316 316 321 313 314 323 324 322 321 320 318 313 314 315 316 317 317 315 313 311 309 306 304 299 292 286 283 281 281 281 281 282 285 287 290
304 275 219 191 201 262 307 308 296 299 304 309 313 321 319 311 299 297 302 305 306 309 312 312 312 312 312 313 314 316 316 316 315 313 311 308 306 303 298 291 285 281 277 275 275 275 276 278 279
299 265 211 183 210 248 274 282 284 291 297 303 308 308 308 302 281 283 294 296 299 306 311 312 311 314 315 315 316 318 318 318 319 317 314 311 308 306 303 300 296 290 284 276 271 270 269 269 270
286 250 203 193 206 211 246 268 275 282 291 297 301 302 303 293 280 282 286 292 299 304 305 307 308 311 312 313 316 318 319 320 319 318 316 313 310 308 304 302 299 297 291 284 274 266 264 262 262
276 242 203 202 208 216 237 262 273 279 284 290 295 298 298 289 285 277 282 288 292 295 297 300 304 307 309 312 314 316 318 319 316 313 312 310 310 308 307 305 301 298 297 291 282 270 262 260 258
269 237 207 208 216 230 243 257 269 275 281 287 293 297 297 291 291 283 282 288 292 292 292 295 299 302 305 308 311 312 314 314 312 309 308 307 306 306 305 303 301 298 297 294 289 278 267 261 258
262 229 210 217 223 235 248 259 270 275 280 286 291 295 294 291 291 288 285 287 285 286 287 291 295 297 301 303 306 307 308 308 309 307 306 306 306 305 302 300 300 299 296 293 292 287 277 266 260
253 224 215 220 227 236 246 255 265 271 276 282 287 288 289 291 290 290 284 282 282 282 285 288 291 293 296 298 300 302 304 305 306 306 306 306 305 303 301 299 298 299 297 295 293 291 285 276 269
245 226 218 220 227 236 246 254 259 266 273 279 284 288 290 289 289 286 283 286 285 285 286 288 289 290 292 293 295 297 299 300 302 303 302 302 303 301 300 297 295 295 296 295 294 292 290 285 279
243 232 223 222 227 235 245 253 260 266 272 278 282 284 286 287 287 286 286 285 287 288 289 289 290 291 291 291 292 293 295 297 298 299 299 299 298 297 296 294 292 291 292 292 291 293 294 292 285
241 238 231 227 231 239 247 256 263 269 274 275 278 282 285 287 287 286 285 287 289 290 292 293 293 293 293 294 294 294 295 297 298 298 298 298 296 294 293 292 290 290 291 291 289 290 293 292 289
227 229 226 226 232 242 251 261 269 271 270 272 276 282 287 288 287 287 287 289 291 292 293 292 292 293 294 295 295 296 297 297 297 298 298 297 294 293 292 291 289 288 288 289 289 289 289 288 288
208 213 214 225 235 248 258 266 270 267 266 271 278 283 285 287 287 288 289 290 291 292 292 292 292 293 293 294 294 295 296 296 295 296 295 294 293 291 290 288 286 285 285 285 286 286 286 286 286
202 215 231 244 249 257 263 268 268 263 265 269 275 280 284 284 285 286 288 289 290 291 292 293 293 293 293 294 293 293 293 293 293 293 292 291 290 288 286 285 283 282 282 282 282 282 282 282 282
243 278 282 282 264 266 264 263 267 266 266 268 274 283 283 282 285 288 291 292 293 293 293 293 293 293 293 294 293 294 294 294 293 292 291 289 288 286 284 283 281 280 279 279 279 279 278 277 278
293 299 298 295 291 291 274 269 273 268 258 261 279 283 280 285 288 290 291 292 292 291 291 291 292 293 293 293 294 294 294 294 294 293 292 290 288 286 284 282 280 279 278 277 277 276 275 273 273
305 307 316 319 320 329 324 313 304 286 256 258 290 283 284 290 292 293 293 293 292 291 291 290 291 291 291 292 293 294 295 294 294 293 292 290 287 285 283 281 280 278 277 276 275 274 272 271 269
333 328 334 331 328 330 327 330 331 324 331 3 335 299 300 304 306 307 307 304 300 297 294 294 293 293 293 294 295 296 297 297 296 296 295 293 291 289 286 283 281 279 277 274 272 270 268 267 264
353 342 338 337 338 338 336 338 346 360 23 40 27 8 342 333 330 327 323 318 314 310 306 303 302 300 300 300 300 301 301 301 300 300 299 298 296 294 292 289 286 282 278 275 271 268 264 262 260
352 341 339 341 344 350 354 357 14 23 33 34 25 7 357 350 345 341 336 330 325 321 318 314 310 308 306 305 304 304 303 303 302 302 301 299 298 297 295 293 290 286 282 278 273 268 264 259 256
344 333 330 336 342 359 17 32 53 56 38 23 12 4 360 356 352 347 343 338 334 330 326 322 316 312 308 306 305 305 304 304 303 302 301 300 299 298 296 294 292 289 285 280 275 270 265 259 255
321 310 307 316 337 2 29 48 50 48 28 16 6 0 359 357 353 349 345 342 339 335 330 325 321 317 313 310 308 307 306 304 303 302 301 300 299 297 296 294 291 288 285 280 274 270 266 260 255
315 312 308 311 324 342 5 25 20 20 13 7 2 359 357 354 350 347 345 342 339 335 331 327 323 319 316 313 310 308 306 304 303 302 300 299 297 295 294 292 289 286 283 278 273 268 266 262 257
346 337 325 314 317 315 331 338 347 3 6 3 359 356 352 349 346 345 342 339 336 333 330 327 323 320 317 315 313 311 308 306 304 302 300 298 296 293 291 289 286 284 281 278 274 269 265 262 258
336 342 340 323 306 299 306 317 339 1 2 358 354 350 346 344 343 341 338 335 333 331 329 327 325 324 322 319 317 315 313 310 308 305 302 299 296 293 290 287 284 281 279 277 275 272 268 263 259
331 336 350 347 322 308 309 325 344 354 354 349 345 343 341 339 337 335 334 332 331 330 330 329 328 327 325 324 322 320 317 314 311 308 305 301 297 293 289 286 283 280 279 277 276 274 271 266 262
344 345 348 347 333 322 321 329 340 346 345 341 339 337 334 333 331 330 331 331 331 330 331 331 330 330 329 327 326 323 321 318 315 312 308 304 300 295 291 287 284 282 280 279 277 275 272 269 265
Height
5934 5933 5932 5932 5932 5931 5929 5929 5928 5928 5929 5929 5928 5926 5926 5926 5926 5927 5925 5923 5921 5920 5920 5920 5919 5918 5918 5917 5916 5915 5914 5913 5912 5911 5910 5909 5908 5907 5907 5906 5906 5906 5905 5904 5903 5902 5901 5900 5899
5934 5933 5932 5932 5931 5930 5929 5928 5927 5926 5927 5927 5927 5926 5925 5924 5924 5924 5923 5921 5920 5920 5920 5920 5919 5918 5918 5917 5916 5914 5913 5912 5911 5910 5908 5907 5907 5906 5905 5904 5904 5904 5903 5902 5901 5900 5899 5899 5898
5933 5932 5932 5931 5930 5929 5928 5927 5926 5925 5925 5925 5926 5925 5925 5924 5923 5922 5921 5920 5919 5920 5920 5919 5918 5917 5916 5915 5914 5913 5912 5910 5909 5908 5907 5906 5904 5903 5902 5902 5901 5901 5900 5899 5899 5898 5897 5896 5896
5933 5932 5931 5931 5929 5927 5925 5924 5924 5924 5924 5924 5924 5924 5923 5923 5921 5920 5919 5919 5919 5919 5918 5918 5917 5915 5914 5913 5912 5910 5909 5908 5907 5905 5904 5903 5902 5901 5900 5899 5898 5897 5897 5896 5895 5895 5894 5893 5893
5932 5931 5930 5930 5928 5925 5923 5921 5921 5922 5922 5922 5923 5923 5922 5922 5920 5919 5918 5917 5917 5917 5916 5915 5914 5913 5912 5910 5909 5907 5906 5905 5904 5902 5901 5900 5899 5898 5896 5895 5894 5893 5893 5892 5891 5891 5890 5890 5890
5931 5930 5930 5928 5926 5923 5921 5920 5919 5919 5919 5920 5921 5921 5920 5920 5919 5918 5916 5916 5916 5915 5914 5913 5911 5910 5908 5907 5905 5904 5903 5901 5900 5899 5898 5897 5895 5894 5893 5892 5890 5889 5888 5887 5886 5886 5886 5885 5885
5929 5929 5928 5926 5923 5921 5920 5919 5917 5916 5916 5916 5917 5917 5916 5916 5916 5916 5914 5913 5914 5913 5912 5910 5909 5907 5905 5904 5902 5901 5899 5898 5897 5895 5894 5893 5891 5890 5888 5887 5886 5884 5883 5882 5881 5880 5880 5880 5880
5926 5926 5925 5923 5920 5917 5917 5917 5915 5913 5913 5913 5913 5913 5912 5912 5912 5912 5912 5911 5911 5910 5909 5907 5906 5904 5902 5901 5899 5897 5896 5894 5893 5891 5890 5888 5887 5885 5883 5882 5880 5879 5877 5875 5874 5873 5873 5873 5873
5921 5923 5920 5918 5916 5913 5912 5911 5911 5910 5909 5909 5909 5909 5908 5906 5907 5908 5908 5909 5908 5907 5905 5904 5903 5901 5899 5897 5896 5894 5892 5890 5889 5887 5886 5884 5882 5880 5878 5877 5875 5873 5871 5869 5867 5866 5865 5865 5865
5916 5918 5916 5914 5912 5910 5908 5907 5906 5905 5905 5905 5905 5904 5903 5902 5903 5904 5903 5904 5904 5903 5901 5899 5898 5897 5895 5893 5892 5890 5888 5886 5885 5883 5881 5879 5877 5875 5873 5871 5869 5867 5865 5863 5860 5859 5858 5858 5857
5910 5913 5911 5910 5908 5907 5905 5905 5903 5902 5902 5902 5901 5901 5900 5898 5897 5897 5897 5898 5899 5898 5897 5895 5894 5892 5890 5888 5887 5885 5884 5882 5880 5877 5875 5873 5871 5869 5867 5865 5863 5861 5859 5856 5854 5852 5851 5851 5850
5904 5905 5905 5905 5904 5903 5902 5901 5900 5899 5899 5899 5898 5897 5896 5895 5894 5893 5891 5892 5892 5892 5892 5891 5889 5887 5885 5883 5882 5880 5879 5877 5875 5872 5870 5867 5865 5863 5861 5859 5857 5855 5853 5850 5848 5846 5845 5844 5844
5897 5898 5898 5898 5898 5898 5898 5898 5897 5896 5896 5895 5894 5893 5892 5891 5889 5889 5888 5888 5887 5886 5885 5884 5882 5881 5879 5877 5875 5874 5873 5871 5869 5866 5864 5862 5860 5857 5855 5853 5851 5849 5847 5845 5843 5841 5840 5838 5838
5891 5892 5892 5893 5893 5893 5894 5894 5893 5892 5892 5891 5889 5888 5887 5886 5885 5884 5884 5884 5883 5881 5879 5878 5876 5874 5872 5870 5868 5867 5865 5863 5862 5860 5857 5855 5853 5851 5849 5847 5845 5843 5841 5839 5838 5836 5834 5833 5832
5886 5887 5888 5888 5889 5889 5890 5890 5889 5888 5887 5886 5885 5884 5883 5882 5882 5881 5880 5879 5878 5877 5875 5873 5871 5868 5866 5864 5862 5860 5858 5856 5854 5852 5850 5848 5846 5844 5842 5840 5838 5836 5834 5833 5831 5830 5829 5828 5827
5883 5884 5885 5886 5886 5886 5888 5887 5886 5884 5883 5882 5881 5881 5880 5879 5878 5877 5876 5875 5874 5872 5870 5868 5866 5863 5860 5858 5855 5853 5851 5849 5846 5844 5842 5840 5838 5836 5835 5833 5831 5829 5827 5826 5825 5824 5823 5822 5821
5882 5883 5883 5884 5883 5883 5884 5883 5882 5880 5879 5878 5878 5877 5876 5875 5874 5873 5872 5870 5869 5867 5865 5862 5860 5857 5854 5851 5849 5846 5844 5841 5839 5837 5835 5833 5830 5828 5827 5825 5823 5821 5820 5818 5818 5817 5816 5816 5815
5882 5881 5881 5881 5880 5880 5879 5877 5876 5875 5874 5875 5875 5874 5873 5872 5870 5869 5867 5866 5864 5861 5859 5856 5853 5850 5847 5844 5841 5838 5836 5833 5830 5828 5826 5824 5822 5820 5818 5816 5814 5813 5812 5811 5810 5810 5810 5809 5809
5879 5879 5878 5877 5876 5875 5873 5872 5870 5869 5869 5870 5870 5870 5869 5868 5867 5865 5863 5861 5859 5856 5853 5849 5846 5843 5840 5836 5833 5830 5828 5825 5822 5819 5817 5815 5813 5810 5809 5807 5805 5804 5803 5802 5802 5802 5802 5802 5802
5876 5876 5874 5874 5872 5871 5869 5867 5865 5862 5863 5864 5866 5866 5866 5865 5864 5862 5860 5857 5854 5851 5848 5844 5840 5837 5833 5829 5826 5823 5820 5817 5814 5810 5808 5805 5803 5801 5799 5797 5795 5794 5793 5793 5792 5792 5793 5793 5794
5874 5873 5872 5871 5869 5868 5866 5864 5862 5861 5861 5862 5863 5863 5863 5862 5860 5858 5856 5853 5850 5846 5842 5838 5834 5830 5826 5822 5818 5815 5811 5808 5805 5801 5798 5795 5793 5790 5789 5787 5785 5783 5783 5782 5782 5782 5783 5784 5785
5872 5872 5871 5869 5868 5866 5864 5862 5861 5860 5859 5861 5861 5861 5860 5859 5857 5854 5851 5848 5844 5840 5836 5832 5828 5823 5819 5815 5811 5807 5803 5799 5796 5792 5789 5785 5782 5780 5778 5776 5775 5773 5772 5771 5771 5771 5772 5773 5774
5872 5871 5870 5869 5868 5866 5864 5862 5862 5861 5861 5861 5860 5859 5858 5855 5853 5850 5846 5842 5838 5834 5830 5825 5821 5817 5812 5808 5804 5799 5795 5791 5787 5784 5780 5776 5772 5769 5767 5766 5764 5762 5761 5760 5760 5760 5761 5762 5764
5871 5871 5870 5869 5868 5867 5864 5862 5861 5860 5861 5860 5859 5856 5854 5851 5848 5844 5841 5837 5832 5828 5823 5819 5815 5810 5806 5801 5797 5792 5787 5783 5779 5775 5771 5767 5763 5759 5756 5755 5753 5752 5751 5750 5749 5749 5750 5752 5753
5871 5871 5871 5869 5867 5866 5864 5862 5862 5861 5861 5858 5856 5853 5849 5846 5843 5839 5836 5831 5827 5822 5817 5812 5808 5803 5798 5793 5788 5783 5779 5774 5770 5765 5761 5757 5753 5749 5746 5744 5742 5741 5740 5740 5739 5739 5740 5741 5743
5870 5869 5869 5867 5865 5864 5863 5862 5863 5861 5858 5855 5852 5848 5845 5842 5839 5835 5831 5826 5821 5816 5811 5806 5801 5796 5791 5785 5780 5775 5770 5765 5760 5756 5752 5748 5744 5740 5736 5733 5731 5729 5729 5729 5728 5729 5729 5730 5732
5869 5867 5866 5864 5863 5862 5860 5859 5859 5857 5855 5851 5847 5844 5841 5838 5834 5830 5826 5821 5817 5811 5806 5800 5794 5789 5783 5778 5772 5767 5761 5756 5751 5747 5742 5738 5733 5729 5725 5722 5719 5717 5716 5715 5716 5717 5717 5718 5720
5867 5865 5864 5863 5861 5859 5858 5856 5856 5853 5850 5846 5843 5841 5838 5835 5831 5827 5823 5818 5813 5807 5801 5794 5788 5782 5776 5770 5764 5758 5753 5747 5742 5737 5732 5727 5722 5718 5714 5710 5707 5704 5702 5701 5702 5702 5703 5704 5706
5866 5864 5862 5860 5859 5857 5855 5855 5852 5850 5847 5844 5842 5839 5836 5833 5829 5825 5820 5815 5809 5802 5795 5789 5782 5776 5769 5763 5757 5750 5744 5738 5732 5726 5720 5715 5710 5705 5701 5697 5694 5691 5689 5688 5687 5687 5688 5689 5691
5863 5861 5860 5859 5857 5855 5852 5854 5849 5847 5844 5842 5839 5836 5833 5830 5826 5822 5817 5811 5804 5798 5791 5784 5777 5770 5763 5756 5749 5742 5735 5728 5721 5715 5708 5702 5697 5692 5687 5684 5681 5678 5676 5674 5673 5672 5672 5673 5675